Tracking 30685 objects as of 17-Jun-2025
HD Live streaming from Space Station
objects crossing your sky now

COSMOS 1275 DEB

Track COSMOS 1275 DEB now!
10-day predictions


NORAD ID: 14627
Int'l Code: 1981-053JT
Perigee: 851.1 km
Apogee: 906.9 km
Inclination: 82.8 °
Period: 102.4 minutes
Semi major axis: 7249 km
RCS: 0.0099 m2 (small)
Launch date: June 4, 1981
Source: Commonwealth of Independent States (former USSR) (CIS)
Launch site: PLESETSK MISSILE AND SPACE COMPLEX (PKMTR)

Note: This is SATELLITE DEBRIS
Your satellite tracking list
Your tracking list is empty




NASA's NSSDC Master Catalog

Two Line Element Set (TLE):
1 14627U 81053JQ  25168.47652251  .00001351  00000-0  80432-3 0  9991
2 14627  82.7809 337.3347 0038467 356.8017  31.1402 14.06362200110528
Source of the keplerian elements: AFSPC